SCP
1 0 0 0 0 0 0 0 0 0 0 0 0 0 0 1 1 1 0 0 1 1 1 0 0 0 0 0 0 0 0 0 0 0 0 0 0 0 0 0 0 0 0 0
0 0 0 0 0 0 0 0 0 0 0 0 0 0 0 1 1 1 0 0 1 1 1 0 0 0 0 0 0 0 0 0 0 0 0 0 0 0 0 0 0 0 0 0
0 0 0 0 0 0 0 0 0 0 0 0 0 0 0 1 1 0 0 0 0 1 1 0 0 0 0 0 0 0 0 0 0 0 0 0 0 0 0 0 0 0 0 0
0 0 0 0 0 0 0 0 0 0 0 0 0 0 0 1 1 0 0 0 0 1 1 1 1 0 0 0 0 0 0 0 0 0 0 0 0 0 0 0 0 0 0 0
0 0 0 0 0 0 0 0 0 0 0 0 0 0 0 0 0 0 0 0 0 1 1 1 1 0 0 0 0 0 0 0 1 1 0 0 0 0 0 0 0 0 0 0
0 0 0 0 0 0 0 0 0 0 0 0 0 0 0 0 0 0 0 0 0 1 1 1 1 1 0 0 0 0 0 0 0 1 0 0 0 0 0 0 0 0 0 0
0 0 0 0 0 0 0 0 0 0 0 0 0 0 0 0 0 0 0 0 1 1 1 1 1 1 0 0 1 1 1 1 1 1 0 0 0 0 0 0 0 0 0 0
0 0 0 0 0 0 0 0 0 0 0 0 0 0 0 0 0 0 0 0 1 1 1 1 1 1 1 1 1 1 1 1 1 1 0 0 0 0 0 0 0 0 0 0
0 0 0 0 0 0 0 0 0 0 0 0 0 0 0 0 0 0 0 0 1 1 1 1 1 1 1 1 1 1 1 1 1 1 1 0 0 0 0 0 1 1 0 0
0 0 0 0 0 0 0 0 0 0 0 0 0 0 0 0 0 0 0 0 1 1 1 1 1 1 1 1 1 1 1 1 1 1 1 1 1 1 1 1 1 1 1 0
0 0 0 0 0 0 0 0 0 0 0 0 0 0 0 0 0 0 0 0 1 1 1 1 1 0 0 1 1 1 1 1 1 1 1 1 1 1 1 1 1 0 0 0
0 0 0 0 0 0 0 0 0 0 0 0 0 0 0 0 0 0 0 0 0 1 1 1 0 0 0 0 1 1 1 1 1 1 1 1 1 1 0 0 0 0 0 0
0 0 0 0 0 0 0 0 0 0 0 0 0 0 0 0 0 0 0 0 0 1 1 1 0 0 0 0 0 0 0 0 0 0 0 0 0 0 0 0 0 0 0 0
0 0 0 0 0 0 0 0 0 0 0 0 0 0 0 0 0 0 0 0 0 1 1 1 0 0 0 0 0 0 0 0 0 0 0 0 0 0 0 0 0 0 0 0
0 0 0 0 0 0 0 0 0 0 0 0 0 0 0 0 0 0 0 0 0 1 1 0 0 0 0 0 0 0 0 0 0 0 0 0 0 0 0 0 0 0 0 0
0 0 0 0 0 0 0 0 0 0 0 0 0 0 0 0 0 0 0 0 0 1 1 0 0 0 0 0 0 0 0 0 0 0 1 1 0 0 0 0 0 0 0 0
0 0 0 0 0 0 0 0 0 0 0 0 0 0 0 0 0 0 0 0 0 1 1 0 0 0 0 0 0 0 0 0 0 0 1 1 1 0 0 0 0 0 0 0
0 0 0 0 0 0 0 0 0 0 0 0 0 0 0 0 0 0 0 0 0 0 1 0 0 0 0 0 0 0 0 0 1 1 1 1 1 0 0 0 0 1 1 1
0 0 0 0 0 0 0 0 0 0 0 0 0 0 0 0 0 0 0 0 0 0 1 0 0 0 0 0 0 0 1 1 1 1 1 1 0 0 1 1 1 1 1 1
0 0 0 0 0 0 0 0 0 0 0 0 0 0 0 0 0 0 0 0 0 0 1 0 0 0 0 0 0 1 1 1 1 1 1 0 0 1 1 1 2 2 1 1
0 0 0 0 0 0 0 0 0 0 0 0 0 0 0 0 0 0 0 0 0 0 0 0 0 0 0 0 1 1 1 1 1 1 0 0 0 1 1 2 2 2 1 1
0 0 0 0 0 0 0 0 0 0 0 0 0 0 0 0 0 0 0 0 0 0 0 1 0 0 0 1 1 1 1 1 0 0 1 0 0 1 1 2 2 2 1 1
0 0 0 0 0 0 0 0 0 0 0 0 0 0 0 0 0 0 0 0 0 0 1 1 1 1 1 1 1 1 1 1 1 1 1 1 1 1 1 1 1 1 1 1
0 0 0 0 0 0 0 0 0 0 0 0 0 0 0 0 0 0 0 0 1 1 1 1 1 1 1 1 1 1 1 1 1 1 1 1 1 1 1 1 1 1 0 0
0 0 0 0 0 0 0 0 0 0 0 0 0 0 0 0 0 0 0 0 0 1 1 1 1 1 1 1 1 1 1 1 1 1 1 1 0 0 0 0 0 0 0 0
0 0 0 0 0 0 0 0 0 0 0 0 0 0 0 0 0 0 0 0 0 0 1 1 1 1 1 1 1 1 1 1 1 1 1 1 0 0 0 0 0 0 0 0
Wind_Speed
3 2 1 1 2 2 2 3 3 4 4 3 5 6 8 9 8 8 8 8 9 9 8 7 6 5 5 4 6 6 5 4 4 2 2 2 2 2 3 3 4 4 4 4
1 1 2 2 1 3 4 4 4 4 3 2 4 5 7 9 9 8 8 8 9 10 9 8 7 5 5 4 5 6 5 5 4 2 2 2 2 2 2 2 3 3 4 4
1 2 3 2 2 3 3 3 4 4 2 3 4 4 7 9 9 8 7 8 8 10 11 10 8 6 5 5 5 5 6 6 5 3 2 2 2 1 2 2 2 3 4 4
1 2 2 2 2 2 1 2 4 5 3 3 5 3 8 11 11 10 9 8 8 9 10 9 8 7 5 5 5 5 5 6 5 4 2 2 2 1 2 2 1 2 3 3
1 2 1 1 2 1 2 2 2 4 3 3 6 4 5 11 12 13 12 11 9 9 9 9 8 7 6 5 4 4 5 5 5 4 3 1 1 2 2 2 2 2 2 3
2 3 1 1 1 1 2 3 4 3 2 4 6 5 4 9 13 14 14 13 11 10 9 9 8 6 5 5 4 4 5 4 4 3 3 2 2 2 2 2 1 1 1 2
3 4 4 3 2 4 4 2 1 2 3 3 4 3 3 7 10 13 14 13 12 11 11 10 9 8 7 6 6 5 5 4 4 3 3 3 3 2 2 1 1 1 1 1
3 4 5 4 3 3 5 4 2 1 2 2 4 3 3 6 6 9 11 12 12 11 11 11 10 9 8 7 7 6 6 5 4 3 2 2 3 2 1 1 1 1 1 2
2 3 6 4 4 3 3 4 4 4 4 2 3 5 6 7 7 7 10 12 12 11 11 10 10 9 8 8 7 7 7 5 4 4 2 2 3 2 2 1 1 1 2 2
2 1 5 6 5 7 5 5 3 3 2 1 1 3 4 7 7 8 9 10 11 11 11 11 10 9 9 8 7 7 7 6 5 4 3 2 2 3 2 1 1 1 2 2
4 3 4 6 6 5 5 5 4 2 2 1 1 2 3 4 5 7 8 9 9 11 11 10 9 9 9 8 7 7 6 5 5 4 3 3 2 2 2 1 2 1 2 1
4 3 4 6 4 3 5 4 4 2 2 1 1 0 2 4 5 5 6 8 9 10 10 10 9 9 8 8 8 8 7 6 5 5 4 4 3 3 3 2 2 2 2 2
2 3 2 2 3 5 6 5 4 4 3 2 0 2 3 5 6 6 5 7 8 9 9 9 9 8 8 8 8 8 7 6 5 5 5 4 4 3 3 3 2 2 2 2
4 6 5 4 3 4 5 5 5 5 3 2 0 3 2 5 5 5 6 7 8 9 9 9 8 8 8 7 7 7 7 6 6 5 4 4 4 3 3 2 2 2 1 1
6 7 7 5 3 3 5 6 6 6 5 4 2 1 0 4 5 5 6 8 9 9 9 9 8 8 8 8 7 7 7 7 6 6 5 4 4 3 3 3 2 2 1 1
7 7 7 6 5 5 6 6 7 7 6 5 3 1 1 4 5 5 6 8 8 8 9 9 9 9 9 9 8 7 7 7 7 6 5 4 4 4 3 3 3 2 2 1
7 7 7 5 6 7 7 7 7 6 6 5 3 1 2 3 4 4 5 6 8 8 8 9 9 8 8 9 8 8 8 7 7 7 6 5 4 4 4 3 3 3 3 2
7 7 5 5 6 7 3 2 3 4 4 3 2 1 2 3 5 4 4 5 6 7 7 7 7 8 8 8 8 8 7 7 7 6 6 5 5 4 4 4 3 3 3 2
7 6 5 5 6 6 4 4 4 3 3 3 3 3 3 4 5 4 4 5 5 5 6 5 6 7 8 8 8 8 8 7 6 6 6 6 5 5 5 4 4 3 3 2
9 7 6 6 7 6 2 3 3 2 3 2 2 3 4 4 3 3 5 6 5 5 5 5 4 5 6 6 7 8 7 6 6 6 5 5 5 5 5 5 4 3 3 3
11 9 9 8 7 5 1 4 4 3 1 3 2 2 3 3 2 5 7 6 5 5 5 5 5 4 4 5 7 7 6 6 6 6 5 5 5 5 5 4 3 3 3 3
10 8 9 8 8 4 2 4 3 1 2 2 2 2 2 4 5 6 7 6 6 5 6 5 5 4 4 4 5 6 5 5 5 5 5 5 5 5 5 4 4 3 3 3
8 6 4 4 2 1 1 1 0 1 1 1 2 3 4 5 5 6 6 6 6 5 5 5 5 5 4 4 4 5 4 5 6 6 5 5 5 4 4 4 4 3 3 3
6 6 6 5 4 4 3 2 1 1 1 2 2 2 3 4 5 6 6 6 6 5 5 5 5 5 4 4 4 4 4 4 5 6 5 4 5 4 3 3 3 3 2 2
4 5 6 6 4 3 4 3 2 1 1 1 2 2 2 3 5 6 6 6 5 5 5 5 5 4 4 4 4 4 4 5 4 5 5 4 4 4 3 2 2 2 2 3
6 6 5 4 3 3 2 3 3 2 2 1 2 2 2 3 4 5 6 6 5 6 5 5 5 4 4 4 4 3 4 4 4 4 4 3 3 3 3 3 2 2 1 2
Wind_Direction
194 205 207 224 191 207 141 155 137 126 144 179 163 157 162 166 171 170 170 175 172 164 160 154 151 152 145 133 124 122 127 111 96 71 74 76 63 56 51 51 39 34 34 33
169 93 58 69 163 161 143 143 135 117 137 177 158 165 167 174 184 183 179 180 174 165 158 151 153 160 152 145 133 136 130 121 115 106 113 111 98 86 78 53 37 34 38 29
144 96 101 136 157 139 144 161 158 146 173 200 168 177 185 181 185 190 190 185 177 169 165 162 166 163 162 157 150 141 136 131 128 121 86 85 72 75 92 83 48 40 46 29
143 123 140 141 122 118 119 143 162 171 186 206 209 197 196 188 188 192 195 189 186 175 164 161 166 164 168 156 151 147 143 137 130 124 111 123 124 108 103 115 114 83 63 51
166 128 161 164 109 65 119 163 199 200 228 243 221 227 194 183 193 194 194 192 187 176 167 166 167 164 166 150 151 142 127 117 119 125 124 104 89 96 92 92 94 87 59 56
193 154 179 119 122 146 157 218 239 233 252 256 221 213 189 188 196 192 191 190 185 179 169 167 162 156 155 141 136 118 113 106 108 123 135 139 104 96 95 88 97 107 92 63
181 153 151 169 179 172 198 218 245 207 216 236 197 193 197 185 183 184 184 185 182 180 173 170 167 165 157 149 146 140 135 137 141 159 166 156 137 136 140 140 119 101 105 87
195 173 173 187 224 212 215 223 257 286 240 205 178 186 142 138 154 167 171 175 177 179 175 173 166 163 159 157 157 157 153 152 158 177 180 153 140 140 123 102 115 100 97 97
226 159 156 182 234 255 244 235 259 283 281 260 175 137 129 138 148 158 166 170 176 177 170 165 162 161 160 162 162 161 157 160 170 185 170 141 129 120 118 131 107 99 104 107
278 192 173 173 218 228 254 280 274 278 319 312 178 133 143 153 161 165 167 170 174 172 169 164 163 163 163 165 164 163 163 167 171 177 164 137 131 130 133 146 109 117 111 104
245 225 187 187 214 220 221 243 267 270 272 313 31 47 87 142 151 161 164 165 167 168 166 162 160 162 161 163 162 161 164 167 164 170 157 143 149 145 149 150 133 130 121 151
236 243 221 205 181 230 246 259 273 298 313 300 66 58 155 135 136 144 150 156 160 160 161 160 160 159 160 165 167 167 170 169 166 169 157 158 160 159 166 166 165 173 160 166
262 252 227 189 183 206 228 236 262 277 276 283 174 165 142 113 117 129 138 144 150 152 156 158 158 160 164 168 170 170 170 168 166 165 164 161 157 167 180 170 172 183 164 173
270 260 246 236 232 205 220 223 240 264 273 285 231 137 154 122 118 127 140 145 147 150 155 157 160 162 164 169 169 169 167 163 160 161 161 161 165 170 173 163 166 179 172 160
245 262 270 266 256 231 230 230 235 246 262 275 310 81 184 134 130 136 141 143 148 154 159 161 161 163 165 170 171 167 164 163 160 161 166 172 169 161 161 156 162 172 163 151
236 257 266 261 252 239 238 230 232 237 248 259 267 282 111 121 124 133 141 150 157 162 166 165 167 167 171 174 174 167 164 166 162 164 171 170 164 159 163 158 155 157 147 147
227 245 261 263 254 247 238 228 225 230 239 250 253 241 115 128 134 135 141 152 163 166 167 168 171 172 173 176 174 168 168 167 165 165 166 165 164 162 158 155 158 163 156 145
237 250 259 260 259 255 240 187 200 224 237 248 245 192 168 143 126 126 140 152 158 160 163 167 172 171 172 174 169 167 165 166 165 164 165 164 162 161 157 161 169 169 165 170
242 248 258 258 259 262 246 199 188 215 227 224 226 202 178 150 142 142 136 137 138 143 151 159 170 168 168 169 166 164 165 166 164 164 167 169 166 163 163 169 173 170 175 183
228 238 248 248 254 258 236 147 138 221 235 190 183 178 169 165 171 155 137 130 131 133 138 145 151 153 158 159 154 157 161 162 164 163 166 164 161 162 167 171 173 170 180 191
210 222 232 245 252 255 180 136 152 217 194 137 144 156 167 169 128 123 124 123 127 129 131 134 136 131 138 144 147 154 158 167 164 158 157 154 155 161 163 167 172 170 176 183
217 216 225 232 241 233 168 170 193 88 75 120 129 132 133 112 113 119 121 124 129 131 132 132 127 122 123 130 141 150 157 159 151 148 149 155 157 162 165 164 170 169 172 182
226 224 225 227 220 161 162 159 184 14 1 54 97 112 130 135 137 129 128 130 132 133 134 133 132 132 132 134 139 144 144 142 145 146 151 156 154 152 151 156 164 169 174 178
241 231 231 233 213 195 192 201 166 69 20 48 73 100 139 150 146 136 133 134 135 137 135 136 137 139 137 134 133 137 137 138 141 148 152 152 152 151 151 149 156 159 169 180
244 244 246 245 236 208 192 179 168 157 138 95 97 119 144 149 151 148 143 141 137 130 131 138 140 138 140 136 130 130 137 146 153 152 151 153 151 150 145 129 129 158 168 178
245 239 240 252 250 251 205 171 176 172 169 159 141 138 144 151 151 149 144 136 133 134 134 131 126 129 134 130 126 125 136 152 156 156 156 155 150 147 144 139 117 73 116 135